Regional Weather Roundup
Issued by NWS State College, PA

Home | Current Version | Previous Version | Graphics & Text | Print | Product List | Glossary On
Versions: 1 2 3 4 5 6 7 8 9 10 11 12 13 14 15 16 17 18 19 20 21 22 23 24 25 26 27 28 29 30 31 32 33 34 35 36 37 38 39 40 41 42 43 44 45 46 47 48 49 50
000
ASUS41 KCTP 061103
RWRCTP

REGIONAL WEATHER ROUNDUP
NATIONAL WEATHER SERVICE STATE COLLEGE PA
700 AM EDT MON JUL 06 2015

Note: "fair" indicates few or no clouds below 12,000 feet with no
significant weather and/or obstructions to visibility.

* = STATION THAT DOES NOT REPORT PRECIPITATION /E.G. RAIN...SNOW...ETC/
    THUNDER OR FOG.

PAZ002>004-007>009-013>016-020>023-029>032-061200-
WESTERN PENNSYLVANIA

CITY           SKY/WX    TMP DP  RH WIND       PRES   REMARKS
ERIE           CLOUDY    69  60  73 S10       30.08R
MEADVILLE      CLOUDY    67  61  81 VRB3      30.11R HAZE
FRANKLIN*      CLOUDY    64  59  82 E6        30.13S
NEW CASTLE     FAIR      65  65 100 CALM      30.10S
BEAVER COUNTY  PTCLDY    68  64  88 N3        30.09
BUTLER*        CLOUDY    66  64  94 E6        30.11S
PITTSBURGH INT CLOUDY    71  67  87 CALM      30.08R
PITTSBURGH     CLOUDY    69  65  86 E5        30.08R FOG
INDIANA*       CLOUDY    68  68 100 CALM      30.15R FOG
LATROBE        PTSUNNY   72  70  94 CALM      30.10
WASHINGTON CO* NOT AVBL
$$

PAZ004>006-010>012-017>019-024>028-033>037-041-042-045-046-049>053-061200-
CENTRAL PENNSYLVANIA

CITY           SKY/WX    TMP DP  RH WIND       PRES   REMARKS
BRADFORD       MOSUNNY   58  56  93 SE3       30.16S FOG
DUBOIS         CLOUDY    66  61  84 E6        30.15R
CLEARFIELD     PTSUNNY   63  60  90 VRB3      30.16R
JOHNSTOWN      CLOUDY    67  64  90 S10       30.15R
ALTOONA        CLOUDY    68  65  90 CALM      30.15R FOG
STATE COLLEGE  DRIZZLE   64  63  94 N3        30.14R FOG
WILLIAMSPORT   CLOUDY    66  61  84 CALM      30.13S
SELINSGROVE    CLOUDY    67  65  93 CALM      30.14S FOG
FT INDIANTOWN  DRIZZLE   68  66  94 NE3       30.14S
CAPITAL CITY   CLOUDY    70  67  90 E7        30.12F FOG
HARRISBURG     CLOUDY    70  67  90 SE3       30.12S FOG
YORK           CLOUDY    71  69  93 E3        30.13S FOG
$$

PAZ038>040-043-044-047-048-054-055-060>062-067>071-061200-
EASTERN PENNSYLVANIA

CITY           SKY/WX    TMP DP  RH WIND       PRES   REMARKS
SCRANTON       MOSUNNY   64  58  80 CALM      30.17R
MOUNT POCONO   MOSUNNY   62  59  90 CALM      30.21R
ALLENTOWN      PTSUNNY   68  64  87 CALM      30.16R FOG
QUAKERTOWN*    CLOUDY    66  66 100 CALM      30.17S
READING        PTSUNNY   69  65  86 CALM      30.14R
LANCASTER      CLOUDY    69  67  93 CALM      30.14R FOG
COATESVILLE    FOG       68  68 100 E3        30.16S VSB 1
POTTSTOWN      CLOUDY    69  68  96 NE3       30.17R FOG
BLUE BELL        N/A     70  70 100 CALM      30.15S
DOYLESTOWN     CLOUDY    67  66  97 CALM      30.15S
WILLOW GROVE   NOT AVBL
NORTH PHILA    CLOUDY    72  66  81 SE3       30.16S
PHILADELPHIA   CLOUDY    73  68  84 E3        30.14S
$$



USA.gov is the U.S. government's official web portal to all federal, state and local government web resources and services.